TimeEDT,TemperatureF,Dew PointF,Humidity,Sea Level PressureIn,VisibilityMPH,Wind Direction,Wind SpeedMPH,Gust SpeedMPH,PrecipitationIn,Events,Conditions,WindDirDegrees,DateUTC
12:15 AM,57.2,57.2,100,30.36,7.0,NE,8.1,-,N/A,,Overcast,40,2013-05-02 04:15:00
12:35 AM,57.2,57.2,100,30.36,4.0,NE,5.8,-,N/A,,Overcast,50,2013-05-02 04:35:00
12:55 AM,57.2,57.2,100,30.36,3.0,ENE,8.1,-,N/A,,Overcast,60,2013-05-02 04:55:00
1:15 AM,57.2,57.2,100,30.35,4.0,NE,4.6,-,N/A,,Overcast,40,2013-05-02 05:15:00
1:35 AM,57.2,57.2,100,30.35,7.0,NNE,3.5,-,N/A,,Overcast,30,2013-05-02 05:35:00
1:55 AM,55.4,55.4,100,30.35,5.0,NNE,5.8,-,N/A,,Overcast,30,2013-05-02 05:55:00
2:35 AM,55.4,55.4,100,30.34,5.0,NE,6.9,-,N/A,,Overcast,40,2013-05-02 06:35:00
2:55 AM,55.4,55.4,100,30.34,7.0,NE,6.9,-,N/A,,Overcast,40,2013-05-02 06:55:00
3:15 AM,55.4,55.4,100,30.34,10.0,NE,8.1,-,N/A,,Overcast,50,2013-05-02 07:15:00
3:35 AM,57.2,57.2,100,30.34,10.0,ENE,8.1,-,N/A,,Overcast,60,2013-05-02 07:35:00
3:55 AM,57.2,57.2,100,30.34,7.0,NE,6.9,-,N/A,,Overcast,50,2013-05-02 07:55:00
4:15 AM,55.4,55.4,100,30.34,4.0,NE,6.9,-,N/A,,Overcast,40,2013-05-02 08:15:00
4:35 AM,55.4,55.4,100,30.34,4.0,NE,6.9,-,N/A,,Overcast,40,2013-05-02 08:35:00
4:55 AM,55.4,55.4,100,30.34,5.0,NE,8.1,-,N/A,,Overcast,40,2013-05-02 08:55:00
5:15 AM,55.4,55.4,100,30.34,10.0,NE,8.1,-,N/A,,Overcast,50,2013-05-02 09:15:00
5:35 AM,55.4,55.4,100,30.33,7.0,NE,5.8,-,N/A,,Overcast,50,2013-05-02 09:35:00
5:55 AM,55.4,55.4,100,30.34,7.0,NE,6.9,-,N/A,,Overcast,40,2013-05-02 09:55:00
6:15 AM,55.4,55.4,100,30.33,10.0,NE,8.1,-,N/A,,Overcast,40,2013-05-02 10:15:00
6:35 AM,57.2,57.2,100,30.34,10.0,NE,8.1,-,N/A,,Overcast,50,2013-05-02 10:35:00
6:55 AM,57.2,57.2,100,30.34,10.0,NE,9.2,-,N/A,,Overcast,40,2013-05-02 10:55:00
7:15 AM,57.2,55.4,94,30.34,10.0,NE,10.4,-,N/A,,Overcast,40,2013-05-02 11:15:00
7:35 AM,57.2,55.4,94,30.35,10.0,NE,9.2,-,N/A,,Overcast,50,2013-05-02 11:35:00
7:55 AM,57.2,55.4,94,30.35,10.0,NE,10.4,16.1,N/A,,Overcast,50,2013-05-02 11:55:00
8:15 AM,57.2,55.4,94,30.35,10.0,NE,11.5,-,N/A,,Overcast,50,2013-05-02 12:15:00
8:35 AM,57.2,55.4,94,30.36,10.0,ENE,12.7,-,N/A,,Overcast,60,2013-05-02 12:35:00
8:55 AM,60.8,55.4,82,30.36,10.0,ENE,11.5,-,N/A,,Overcast,70,2013-05-02 12:55:00
9:15 AM,60.8,55.4,82,30.36,10.0,NE,10.4,-,N/A,,Overcast,50,2013-05-02 13:15:00
9:35 AM,60.8,53.6,77,30.36,10.0,NE,10.4,-,N/A,,Overcast,50,2013-05-02 13:35:00
9:55 AM,60.8,53.6,77,30.37,10.0,East,10.4,-,N/A,,Overcast,80,2013-05-02 13:55:00
10:15 AM,62.6,53.6,72,30.37,10.0,ENE,9.2,-,N/A,,Overcast,60,2013-05-02 14:15:00
10:35 AM,62.6,53.6,72,30.38,10.0,ENE,11.5,16.1,N/A,,Overcast,60,2013-05-02 14:35:00
10:55 AM,62.6,53.6,72,30.38,10.0,NE,8.1,-,N/A,,Overcast,50,2013-05-02 14:55:00
11:15 AM,64.4,53.6,68,30.38,10.0,NE,10.4,18.4,N/A,,Overcast,50,2013-05-02 15:15:00
11:35 AM,64.4,53.6,68,30.37,10.0,NE,10.4,18.4,N/A,,Mostly Cloudy,40,2013-05-02 15:35:00
11:55 AM,64.4,51.8,64,30.37,10.0,NE,12.7,19.6,N/A,,Mostly Cloudy,50,2013-05-02 15:55:00
12:15 PM,66.2,51.8,60,30.37,10.0,NE,13.8,18.4,N/A,,Scattered Clouds,50,2013-05-02 16:15:00
12:35 PM,66.2,51.8,60,30.36,10.0,ENE,11.5,17.3,N/A,,Clear,60,2013-05-02 16:35:00
12:55 PM,66.2,51.8,60,30.35,10.0,NE,11.5,-,N/A,,Clear,50,2013-05-02 16:55:00
1:15 PM,66.2,51.8,60,30.35,10.0,NE,12.7,-,N/A,,Clear,50,2013-05-02 17:15:00
1:35 PM,66.2,51.8,60,30.35,10.0,ENE,9.2,18.4,N/A,,Clear,60,2013-05-02 17:35:00
1:55 PM,66.2,51.8,60,30.35,10.0,ENE,13.8,19.6,N/A,,Clear,70,2013-05-02 17:55:00
2:15 PM,68.0,51.8,56,30.35,10.0,ENE,12.7,18.4,N/A,,Clear,60,2013-05-02 18:15:00
2:35 PM,68.0,50.0,52,30.35,10.0,ENE,13.8,19.6,N/A,,Clear,60,2013-05-02 18:35:00
2:55 PM,68.0,51.8,56,30.34,10.0,ENE,15.0,18.4,N/A,,Clear,70,2013-05-02 18:55:00
3:15 PM,66.2,51.8,60,30.33,10.0,NE,11.5,18.4,N/A,,Clear,50,2013-05-02 19:15:00
3:35 PM,66.2,53.6,64,30.33,10.0,East,10.4,18.4,N/A,,Scattered Clouds,80,2013-05-02 19:35:00
3:55 PM,66.2,53.6,64,30.33,10.0,ENE,11.5,-,N/A,,Scattered Clouds,70,2013-05-02 19:55:00
4:15 PM,66.2,53.6,64,30.33,10.0,NE,15.0,-,N/A,,Scattered Clouds,50,2013-05-02 20:15:00
4:35 PM,66.2,53.6,64,30.33,10.0,NE,16.1,-,N/A,,Scattered Clouds,50,2013-05-02 20:35:00
4:55 PM,66.2,51.8,60,30.33,10.0,ENE,15.0,23.0,N/A,,Scattered Clouds,70,2013-05-02 20:55:00
5:15 PM,66.2,53.6,64,30.32,10.0,ENE,13.8,17.3,N/A,,Mostly Cloudy,60,2013-05-02 21:15:00
5:35 PM,64.4,51.8,64,30.32,10.0,ENE,12.7,18.4,N/A,,Mostly Cloudy,70,2013-05-02 21:35:00
5:55 PM,64.4,51.8,64,30.32,10.0,East,10.4,-,N/A,,Mostly Cloudy,80,2013-05-02 21:55:00
6:15 PM,62.6,51.8,68,30.32,10.0,East,13.8,17.3,N/A,,Scattered Clouds,80,2013-05-02 22:15:00
6:35 PM,62.6,51.8,68,30.31,10.0,ENE,13.8,-,N/A,,Clear,70,2013-05-02 22:35:00
6:55 PM,60.8,51.8,72,30.31,10.0,ENE,11.5,17.3,N/A,,Clear,70,2013-05-02 22:55:00
7:15 PM,60.8,51.8,72,30.31,10.0,ENE,10.4,-,N/A,,Clear,70,2013-05-02 23:15:00
7:35 PM,59.0,51.8,77,30.31,10.0,ENE,8.1,-,N/A,,Clear,60,2013-05-02 23:35:00
7:55 PM,57.2,51.8,82,30.31,10.0,ENE,5.8,-,N/A,,Clear,60,2013-05-02 23:55:00
8:15 PM,57.2,51.8,82,30.31,10.0,NE,5.8,-,N/A,,Clear,50,2013-05-03 00:15:00
8:35 PM,55.4,51.8,88,30.31,10.0,Calm,Calm,-,N/A,,Clear,0,2013-05-03 00:35:00
8:55 PM,55.4,51.8,88,30.31,10.0,Calm,Calm,-,N/A,,Clear,0,2013-05-03 00:55:00
9:15 PM,53.6,51.8,94,30.31,10.0,Calm,Calm,-,N/A,,Clear,0,2013-05-03 01:15:00
9:35 PM,53.6,51.8,94,30.32,10.0,Calm,Calm,-,N/A,,Clear,0,2013-05-03 01:35:00
9:55 PM,51.8,51.8,100,30.32,10.0,Calm,Calm,-,N/A,,Clear,0,2013-05-03 01:55:00
10:15 PM,51.8,51.8,100,30.32,10.0,Calm,Calm,-,N/A,,Clear,0,2013-05-03 02:15:00
10:35 PM,51.8,51.8,100,30.32,10.0,Calm,Calm,-,N/A,,Clear,0,2013-05-03 02:35:00
10:55 PM,51.8,51.8,100,30.31,10.0,Calm,Calm,-,N/A,,Clear,0,2013-05-03 02:55:00
11:15 PM,50.0,50.0,100,30.31,10.0,Calm,Calm,-,N/A,,Clear,0,2013-05-03 03:15:00
11:35 PM,50.0,50.0,100,30.31,10.0,Calm,Calm,-,N/A,,Clear,0,2013-05-03 03:35:00
11:55 PM,48.2,48.2,100,30.31,10.0,Calm,Calm,-,N/A,,Clear,0,2013-05-03 03:55:00